"Pseudo-MPEC" for CEJ6XU2

Created 2026 Apr 16 23:35:05 UT using Find_Orb

Click here for an explanation of pseudo-MPECs

 
 Astrometry: 
     CEJ6XU2*1C2026 04 15.32320213 23 34.249+27 24 42.62   ~4FDK 20.82GVNEOCPG96
     CEJ6XU2 1C2026 04 15.32837213 23 33.248+27 24 25.45   ~4FDK 21.26GVNEOCPG96
     CEJ6XU2 1C2026 04 15.33352613 23 32.302+27 24 09.22   ~4FDK 20.71GVNEOCPG96
     CEJ6XU2 1C2026 04 15.33868013 23 31.384+27 23 50.60   ~4FDK 21.67GVNEOCPG96
     CEJ6XU2 1C2026 04 15.43309213 23 14.352+27 18 41.33   ~4FDZ 21.18GVNEOCPI52
     CEJ6XU2 1C2026 04 15.43480213 23 14.082+27 18 35.32   ~4FDZ 20.98GVNEOCPI52
     CEJ6XU2 1C2026 04 15.43650713 23 13.715+27 18 29.27   ~4FDZ 21.10GVNEOCPI52
     CEJ6XU2 1C2026 04 15.43821813 23 13.430+27 18 23.65   ~4FDZ 22.30GVNEOCPI52
     CEJ6XU2 pC2026 04 15.91752413 21 51.58 +26 52 02.9    ~4FMZ 21.2 GVNEOCPL01
     CEJ6XU2 KC2026 04 15.91996513 21 51.15 +26 51 54.8    ~4FMZ 21.6 GVNEOCPL01
     CEJ6XU2 KC2026 04 15.92249913 21 50.72 +26 51 46.3    ~4FMZ 21.4 GVNEOCPL01
     CEJ6XU2 0C2026 04 16.13027 13 21 15.64 +26 40 16.4    ~4G3o 22.0 RVNEOCP291
     CEJ6XU2 0C2026 04 16.13431 13 21 14.95 +26 40 02.5    ~4G3o 22.1 RVNEOCP291
     CEJ6XU2 0C2026 04 16.13836 13 21 14.24 +26 39 49.9    ~4G3o 21.5 RVNEOCP291
     CEJ6XU2  C2026 04 16.15655113 21 10.921+26 38 49.21   ~4G4Z 21.0 GWNEOCPH01
     CEJ6XU2  C2026 04 16.16177213 21 09.996+26 38 32.01   ~4G4Z 21.0 GWNEOCPH01
     CEJ6XU2  C2026 04 16.17163613 21 08.234+26 37 59.34   ~4G4Z 21.0 GWNEOCPH01
     CEJ6XU2  C2026 04 16.17835013 21 07.034+26 37 37.14   ~4G4Z 21.1 GWNEOCPH01

Station data:
(291) LPL/Spacewatch II  (N31.961669 W111.599905)  US/Arizona.  Observers J.
   V. Scotti, R. S. McMillan. 1.8-m f/2.7 reflector + CCD.
(G96) Mt. Lemmon Survey  (N32.442729 W110.788720)  US/Arizona.  Observer E.
   J. Christensen. Measurers T. Beuden, V. F. Carvajal, D. Fay, J. B.
   Fazekas, D. C. Fuls, A. R. Gibbs, A. D. Grauer, H. Gröller, J. K. Hogan,
   R. A. Kowalski, S. M. Larson, G. J. Leonard, D. Rankin, R. L. Seaman, F.
   C. Shelly, K. W. Wierzchoś. 1.5-m reflector + 10K CCD.
(H01) Magdalena Ridge Observatory, Socorro  (N33.984833 W107.189333)  US/New
   Mexico.  Observers W. H. Ryan, E. V. Ryan. Measurer W. H. Ryan. 2.4-m
   f/8.9 reflector + CCD.
(I52) Steward Observatory, Mt. Lemmon Station  (N32.442570 W110.788920)
   US/Arizona. Measurers T. Beuden, V. F. Carvajal, D. Fay, J. B. Fazekas, D.
   C. Fuls, A. R. Gibbs, A. D. Grauer, H. Gröller, J. K. Hogan, R. A.
   Kowalski, S. M. Larson, G. J. Leonard, D. Rankin, R. L. Seaman, F. C.
   Shelly, K. W. Wierzchoś. 1.0-m prime focus + CCD.
(L01) Višnjan Observatory, Tičan  (N45.290897 E13.749300)  Croatia.
   Observers K. Korlević, L. Poropat. Measurer K. Korlevic. 1.0-m f/2.9
   reflector + CCD.

Orbital elements:  CEJ6XU2
   Perihelion 2026 Apr 16.505966 +/- 4.08 TT = 12:08:35.4 (JD 2461147.005966)
Epoch 2026 Apr 16.0 TT = JDT 2461146.5   Earth MOID: 0.4025      AutoNEOCP
M 359.865006542 +/- 1.0             (J2000 ecliptic)
n   0.266803400 +/- 0.0211          Peri.  160.599585 +/- 3.0
a   2.389691335 +/- 0.126           Node    37.722798 +/- 0.31
e   0.41768841 +/- 0.026            Incl.   31.065520 +/- 0.8
P   3.69413                H 21.46  G  0.15   U 10.2
q 1.391544942 +/- 0.0137    Q 3.387837728 +/- 0.241
From 18 observations 2026 Apr. 15-16 (20.5 hr); mean residual 0".37
Residuals in arcseconds: 
260415 G96  .66+  .42+    260415 I52  .54-  .34-    260416 291  .02-  .29-    
260415 G96  .17-  .14+    260415 I52  .26-  .30-    260416 291  .04+  .46+    
260415 G96  .31-  .77+    260415 L01  .34+  .19-    260416 H01  .18-  .01-    
260415 G96  .09-  .98-    260415 L01  .44+  .22-    260416 H01  .14-  .05+    
260415 I52  .19-  .43+    260415 L01  .77+  .33-    260416 H01  .22-  .02+    
260415 I52  .29+  .07+    260416 291  .33-  .29+    260416 H01  .27-  .05+    

Ephemerides (geocentric):
Date (UTC) HH   RA             Dec           delta  r     elong  mag " sig PA
---- --------  ------------   ------------  ------ ------ -----  --- --------
2026 04 17 00  13 18 45.208   +25 51 26.11  .44998 1.3916 143.5 21.6 2.67  50
2026 04 17 01  13 18 38.089   +25 49 03.78  .44992 1.3916 143.6 21.6 2.85  49
2026 04 17 02  13 18 30.972   +25 46 41.30  .44985 1.3916 143.6 21.6 3.02  48
2026 04 17 03  13 18 23.860   +25 44 18.67  .44978 1.3916 143.6 21.6 3.21  47
2026 04 17 04  13 18 16.750   +25 41 55.89  .44971 1.3916 143.6 21.6 3.40  46
2026 04 17 05  13 18 09.645   +25 39 32.96  .44964 1.3916 143.6 21.6 3.60  46
2026 04 17 06  13 18 02.543   +25 37 09.88  .44958 1.3916 143.6 21.6 3.80  45
2026 04 17 07  13 17 55.445   +25 34 46.64  .44951 1.3916 143.6 21.6 4.01  44
2026 04 17 08  13 17 48.350   +25 32 23.26  .44945 1.3916 143.7 21.6 4.22  44
2026 04 17 09  13 17 41.259   +25 29 59.73  .44938 1.3916 143.7 21.6 4.44  43
2026 04 17 10  13 17 34.172   +25 27 36.05  .44932 1.3916 143.7 21.6 4.66  43
2026 04 17 11  13 17 27.088   +25 25 12.22  .44925 1.3916 143.7 21.6 4.89  42
2026 04 17 12  13 17 20.009   +25 22 48.24  .44919 1.3916 143.7 21.6 5.13  42
2026 04 17 13  13 17 12.933   +25 20 24.12  .44913 1.3916 143.7 21.6 5.37  41
2026 04 17 14  13 17 05.860   +25 17 59.84  .44906 1.3916 143.8 21.6 5.61  41
2026 04 17 15  13 16 58.792   +25 15 35.42  .44900 1.3916 143.8 21.6 5.86  40
2026 04 17 16  13 16 51.728   +25 13 10.85  .44894 1.3916 143.8 21.6 6.12  40
2026 04 17 17  13 16 44.667   +25 10 46.14  .44888 1.3916 143.8 21.6 6.38  40
2026 04 17 18  13 16 37.610   +25 08 21.28  .44882 1.3916 143.8 21.6 6.65  39
2026 04 17 19  13 16 30.557   +25 05 56.27  .44876 1.3916 143.8 21.6 6.93  39
2026 04 17 20  13 16 23.508   +25 03 31.12  .44870 1.3916 143.8 21.6 7.21  39
2026 04 17 21  13 16 16.464   +25 01 05.82  .44864 1.3916 143.9 21.6 7.49  38
2026 04 17 22  13 16 09.423   +24 58 40.38  .44858 1.3916 143.9 21.6 7.78  38
2026 04 17 23  13 16 02.386   +24 56 14.80  .44852 1.3916 143.9 21.6 8.08  38
2026 04 18 00  13 15 55.353   +24 53 49.07  .44846 1.3916 143.9 21.6 8.38  37
2026 04 18 01  13 15 48.324   +24 51 23.19  .44841 1.3916 143.9 21.6 8.68  37
2026 04 18 02  13 15 41.299   +24 48 57.18  .44835 1.3916 143.9 21.6 9.00  37
2026 04 18 03  13 15 34.279   +24 46 31.02  .44829 1.3916 143.9 21.6 9.31  37
2026 04 18 04  13 15 27.262   +24 44 04.72  .44824 1.3916 143.9 21.6 9.64  36
2026 04 18 05  13 15 20.250   +24 41 38.27  .44818 1.3916 144.0 21.6 9.97  36
2026 04 18 06  13 15 13.242   +24 39 11.69  .44813 1.3916 144.0 21.6 10.3  36
2026 04 18 07  13 15 06.238   +24 36 44.96  .44807 1.3916 144.0 21.6 10.6  36
2026 04 18 08  13 14 59.238   +24 34 18.09  .44802 1.3917 144.0 21.6 11.0  35
2026 04 18 09  13 14 52.242   +24 31 51.08  .44797 1.3917 144.0 21.6 11.3  35
2026 04 18 10  13 14 45.251   +24 29 23.94  .44791 1.3917 144.0 21.6 11.7  35
2026 04 18 11  13 14 38.264   +24 26 56.65  .44786 1.3917 144.0 21.6 12.1  35
2026 04 18 12  13 14 31.281   +24 24 29.22  .44781 1.3917 144.0 21.6 12.4  35
2026 04 18 13  13 14 24.303   +24 22 01.65  .44776 1.3917 144.1 21.6 12.8  34
2026 04 18 14  13 14 17.329   +24 19 33.95  .44771 1.3917 144.1 21.6 13.2  34
2026 04 18 15  13 14 10.359   +24 17 06.11  .44766 1.3917 144.1 21.6 13.6  34
2026 04 18 16  13 14 03.394   +24 14 38.13  .44761 1.3917 144.1 21.6 14.0  34
2026 04 18 17  13 13 56.433   +24 12 10.01  .44756 1.3917 144.1 21.6 14.3  34
2026 04 18 18  13 13 49.477   +24 09 41.75  .44751 1.3917 144.1 21.6 14.7  34
2026 04 18 19  13 13 42.525   +24 07 13.36  .44746 1.3917 144.1 21.6 15.2  33
2026 04 18 20  13 13 35.578   +24 04 44.84  .44741 1.3917 144.1 21.6 15.6  33
2026 04 18 21  13 13 28.635   +24 02 16.17  .44737 1.3917 144.2 21.6 16.0  33
2026 04 18 22  13 13 21.696   +23 59 47.38  .44732 1.3917 144.2 21.6 16.4  33
2026 04 18 23  13 13 14.762   +23 57 18.44  .44727 1.3917 144.2 21.6 16.8  33